Regional Weather Roundup
Issued by NWS

Home | Current Version | Previous Version | Text Only | Print | Product List | Glossary On
Versions: 1 2 3 4 5 6 7 8 9 10 11 12 13 14 15 16 17 18 19 20 21 22 23 24 25 26 27 28 29 30 31 32 33 34 35 36 37 38 39 40 41 42 43 44 45 46 47 48 49 50
000
ASUS43 KTOP 291308
RWRKS

WEATHER ROUNDUP FOR KANSAS
NATIONAL WEATHER SERVICE GOODLAND KS
800 AM CDT MON JUN 29 2015

NOTE:  "FAIR" INDICATES FEW OR NO CLOUDS BELOW 12,000 FEET WITH NO
SIGNIFICANT WEATHER AND/OR OBSTRUCTIONS TO VISIBILITY.

KSZ001>006-013>018-027>032-041>047-291400-
NORTHWEST KANSAS

CITY           SKY/WX    TMP DP  RH WIND       PRES   REMARKS
GOODLAND       CLOUDY    64  57  78 NW3       30.14R
HAYS           SUNNY     68  52  56 NW8       30.06R
HILL CITY      SUNNY     67  55  65 CALM      30.07R
RUSSELL        SUNNY     68  54  60 N8        30.03R
$$

KSZ061>065-074>080-084>089-291400-
SOUTHWEST KANSAS

CITY           SKY/WX    TMP DP  RH WIND       PRES   REMARKS
DODGE CITY     SUNNY     67  56  67 N5        30.07R
ELKHART          N/A     69  52  54 NW7         N/A
GARDEN CITY    SUNNY     69  52  54 NE10      30.08R
GREAT BEND     SUNNY     70  55  60 N3        30.04R
LIBERAL        SUNNY     70  59  68 N9        30.07R
PRATT          SUNNY    N/A N/A N/A NE6       30.03R
$$

KSZ066>073-081>083-090>101-291400-
SOUTHEAST KANSAS

CITY           SKY/WX    TMP DP  RH WIND       PRES   REMARKS
CHANUTE        SUNNY     69  62  78 NW6       29.96R
COFFEYVILLE    SUNNY     72  64  76 NW8       29.95R
HUTCHINSON     SUNNY     69  61  75 CALM      30.00S
MEDICINE LODGE   N/A     72  61  68 CALM      29.99R
NEWTON         SUNNY     66  55  68 NW6       30.02R
PARSONS        SUNNY     69  65  86 NW5       29.96R
WICHITA INTL   MOSUNNY   73  58  59 N7        29.98S
WICHITA JABRA  SUNNY     70  61  73 N7        29.99R
WINFIELD       SUNNY     73  63  70 N5        29.98R
$$

KSZ007>012-019>026-033>040-048>060-102>105-291400-
NORTHEAST KANSAS

CITY           SKY/WX    TMP DP  RH WIND       PRES   REMARKS
CONCORDIA      SUNNY     64  58  80 W8        30.01R
EMPORIA        SUNNY     68  61  78 W5        29.98R
LAWRENCE       SUNNY     69  62  78 NW7       29.94R
MANHATTAN      SUNNY     67  61  81 CALM      29.97R
MARYSVILLE     SUNNY     66  61  82 NW3       29.98R
OLATHE IND     SUNNY     69  63  81 NW7       29.95R
OLATHE EXE     SUNNY     71  61  70 NW6       29.94R
SALINA         SUNNY     66  56  70 W5        30.01R
TOPEKA BILLARD SUNNY     69  62  78 W6        29.95R
TOPEKA FORBES  SUNNY     72  62  71 NW6       29.95R
$$


USA.gov is the U.S. government's official web portal to all federal, state and local government web resources and services.